Sigfox identifier Datetime Temperature Humidity SNR
002EF58F 2019-04-23 14:53:13 15.8 31 24
002EF58F 2019-04-23 14:17:58 15.8 31 23.9
002EF58F 2019-04-23 13:42:43 15.6 31 23.8
002EF58F 2019-04-23 13:07:28 15.6 31 23.6
002EF58F 2019-04-23 12:32:13 15.6 31 23.7
002EF58F 2019-04-23 11:56:58 15.6 31 23.7
002EF58F 2019-04-23 11:21:43 15.6 31 23.8
002EF58F 2019-04-23 10:46:29 15.6 31 24
002EF58F 2019-04-23 10:11:14 15.5 31 24
002EF58F 2019-04-23 09:36:00 15.6 31 24.1
002EF58F 2019-04-23 09:00:46 15.5 31 23.9
002EF58F 2019-04-23 08:25:31 15.5 31 23.8
002EF58F 2019-04-23 07:50:15 15.5 31 23.7
002EF58F 2019-04-23 07:15:00 15.4 31 23.8
002EF58F 2019-04-23 06:39:46 15.6 31 24
002EF58F 2019-04-23 06:04:31 15.6 30 23.9
002EF58F 2019-04-23 05:29:16 15.5 30 24
002EF58F 2019-04-23 04:54:01 15.6 30 24
002EF58F 2019-04-23 04:18:46 15.6 30 24.1
002EF58F 2019-04-23 03:43:32 15.6 30 24.1
002EF58F 2019-04-23 03:08:18 15.6 30 24.1
002EF58F 2019-04-23 02:33:03 15.6 30 24.2
002EF58F 2019-04-23 01:57:48 15.6 30 24.2
002EF58F 2019-04-23 01:22:32 15.6 30 24.3
002EF58F 2019-04-23 00:47:17 15.6 30 24.3
002EF58F 2019-04-23 00:12:01 15.6 30 24.3
002EF58F 2019-04-22 23:36:47 15.6 30 24.4
002EF58F 2019-04-22 23:01:32 15.7 30 24.4
002EF58F 2019-04-22 22:26:16 15.6 30 24.4
002EF58F 2019-04-22 21:51:01 15.7 30 24.5
002EF58F 2019-04-22 21:15:45 15.8 30 24.4
002EF58F 2019-04-22 20:40:32 15.8 30 24.4
002EF58F 2019-04-22 20:05:19 15.8 30 24.4
002EF58F 2019-04-22 19:30:05 15.8 30 24.4
002EF58F 2019-04-22 18:54:52 15.7 30 24.4
002EF58F 2019-04-22 18:19:38 15.7 30 24.4
002EF58F 2019-04-22 17:44:24 15.7 30 24.4
002EF58F 2019-04-22 17:09:08 15.6 30 24.5
002EF58F 2019-04-22 16:33:54 15.6 30 24.4
002EF58F 2019-04-22 15:58:39 15.6 30 24.3
002EF58F 2019-04-22 15:23:25 15.6 30 24.4
002EF58F 2019-04-22 14:48:12 15.6 30 24.4
002EF58F 2019-04-22 14:12:58 15.6 30 24.4
002EF58F 2019-04-22 13:37:44 15.6 30 24.4
002EF58F 2019-04-22 13:02:30 15.6 30 24.4
002EF58F 2019-04-22 12:27:16 15.6 30 24.5
002EF58F 2019-04-22 11:52:01 15.6 30 24.3
002EF58F 2019-04-22 11:16:45 15.6 30 24.2
002EF58F 2019-04-22 10:41:31 15.5 30 24.2
002EF58F 2019-04-22 10:06:17 15.5 30 24.2
002EF58F 2019-04-22 09:31:03 15.5 30 24.1
002EF58F 2019-04-22 08:55:50 15.5 30 24.1
002EF58F 2019-04-22 08:20:36 15.4 30 24.1
002EF58F 2019-04-22 07:45:22 15.5 30 24.1
002EF58F 2019-04-22 07:10:08 15.5 30 24
002EF58F 2019-04-22 06:34:54 15.5 30 23.9
002EF58F 2019-04-22 05:59:39 15.5 30 23.9
002EF58F 2019-04-22 05:24:26 15.4 30 23.8
002EF58F 2019-04-22 04:49:10 15.4 30 23.7
002EF58F 2019-04-22 04:13:54 15.4 30 23.7
002EF58F 2019-04-22 03:38:40 15.4 29 23.8
002EF58F 2019-04-22 03:03:26 15.4 29 23.9
002EF58F 2019-04-22 02:28:12 15.4 29 23.9
002EF58F 2019-04-22 01:52:58 15.4 29 24.1
002EF58F 2019-04-22 01:17:42 15.4 29 24.1
002EF58F 2019-04-22 00:42:27 15.4 29 24
002EF58F 2019-04-22 00:07:11 15.4 29 24
002EF58F 2019-04-21 23:31:56 15.4 29 23.9
002EF58F 2019-04-21 22:56:41 15.4 29 23.7
002EF58F 2019-04-21 22:21:27 15.4 29 23.6
002EF58F 2019-04-21 21:46:12 15.4 29 23.6
002EF58F 2019-04-21 21:10:58 15.4 29 23.7
002EF58F 2019-04-21 20:35:43 15.4 29 23.7
002EF58F 2019-04-21 20:00:29 15.4 29 23.7
002EF58F 2019-04-21 19:25:16 15.4 29 23.7
002EF58F 2019-04-21 18:50:02 15.4 29 23.8
002EF58F 2019-04-21 18:14:48 15.4 29 23.8
002EF58F 2019-04-21 17:39:33 15.4 29 23.9
002EF58F 2019-04-21 17:04:19 15.4 29 23.9
002EF58F 2019-04-21 16:29:05 15.4 29 24
002EF58F 2019-04-21 15:53:52 15.4 29 24.1
002EF58F 2019-04-21 15:18:36 15.4 29 24.2
002EF58F 2019-04-21 14:43:22 15.4 29 24.3
002EF58F 2019-04-21 14:08:07 15.4 29 24.3
002EF58F 2019-04-21 13:32:52 15.4 29 24.4
002EF58F 2019-04-21 12:57:38 15.4 29 24.3
002EF58F 2019-04-21 12:22:23 15.4 29 24.2
002EF58F 2019-04-21 11:47:08 15.4 29 24.2
002EF58F 2019-04-21 11:11:53 15.4 29 24.2
002EF58F 2019-04-21 10:36:38 15.6 29 24.2
002EF58F 2019-04-21 10:01:23 15.5 29 24.3
002EF58F 2019-04-21 09:26:07 15.6 29 24.4
002EF58F 2019-04-21 08:50:52 15.6 29 24.5
002EF58F 2019-04-21 08:15:37 15.6 29 24.6
002EF58F 2019-04-21 07:40:23 15.6 29 24.7
002EF58F 2019-04-21 07:05:09 15.6 29 24.7
002EF58F 2019-04-21 06:29:55 15.5 29 24.8
002EF58F 2019-04-21 05:54:41 15.5 29 24.9
002EF58F 2019-04-21 05:19:28 15.5 28 25
002EF58F 2019-04-21 04:44:14 15.4 28 25
002EF58F 2019-04-21 04:09:00 15.4 28 25
002EF58F 2019-04-21 03:33:46 15.4 28 25
002EF58F 2019-04-21 02:58:32 15.4 28 25
002EF58F 2019-04-21 02:23:18 15.4 28 25
002EF58F 2019-04-21 01:48:04 15.4 28 25
002EF58F 2019-04-21 01:12:50 15.4 28 25
002EF58F 2019-04-21 00:37:35 15.4 28 25
002EF58F 2019-04-21 00:02:21 15.4 28 25
002EF58F 2019-04-20 23:27:06 15.4 28 25.1
002EF58F 2019-04-20 22:51:51 15.4 28 25.1
002EF58F 2019-04-20 22:16:36 15.4 28 25
002EF58F 2019-04-20 21:41:21 15.4 28 24.9
002EF58F 2019-04-20 21:06:07 15.4 28 25
002EF58F 2019-04-20 20:30:52 15.4 28 24.9
002EF58F 2019-04-20 19:55:37 15.4 28 24.8
002EF58F 2019-04-20 19:20:20 15.4 28 24.8
002EF58F 2019-04-20 18:45:05 15.5 28 24.6
002EF58F 2019-04-20 18:09:51 15.4 28 24.6
002EF58F 2019-04-20 17:34:36 15.4 28 24.6
002EF58F 2019-04-20 16:59:20 15.4 28 24.6
002EF58F 2019-04-20 16:24:06 15.4 28 24.6
002EF58F 2019-04-20 15:48:50 15.4 28 24.4
002EF58F 2019-04-20 15:13:35 15.4 28 24.3
002EF58F 2019-04-20 14:38:20 15.4 28 24.2
002EF58F 2019-04-20 14:03:05 15.5 28 24.2
002EF58F 2019-04-20 13:27:50 15.5 28 24.2
002EF58F 2019-04-20 12:52:34 15.6 28 24.1
002EF58F 2019-04-20 12:17:19 15.6 28 24.1
002EF58F 2019-04-20 11:42:04 15.6 28 24
002EF58F 2019-04-20 11:06:48 15.6 28 23.9
002EF58F 2019-04-20 10:31:32 15.6 27 23.9
002EF58F 2019-04-20 09:56:17 15.6 27 23.9
002EF58F 2019-04-20 09:21:02 15.6 27 23.9
002EF58F 2019-04-20 08:45:48 15.6 27 23.9
002EF58F 2019-04-20 08:10:33 15.6 27 24
002EF58F 2019-04-20 07:35:18 15.6 27 24.1
002EF58F 2019-04-20 07:00:03 15.6 27 24.3
002EF58F 2019-04-20 06:24:49 15.7 27 24.2
002EF58F 2019-04-20 05:49:35 15.7 27 24.1
002EF58F 2019-04-20 05:14:20 15.7 27 24.2
002EF58F 2019-04-20 04:39:06 15.8 27 24.2
002EF58F 2019-04-20 04:03:56 15.8 27 24.2
002EF58F 2019-04-20 03:28:37 15.8 27 24.3
002EF58F 2019-04-20 02:53:23 15.8 27 24.3
002EF58F 2019-04-20 02:18:09 15.8 27 24.3
002EF58F 2019-04-20 01:42:54 15.8 27 24.3
002EF58F 2019-04-20 01:07:40 16 27 24.3
002EF58F 2019-04-20 00:32:25 15.9 27 24.4
002EF58F 2019-04-19 23:57:10 16 27 24.3
002EF58F 2019-04-19 23:21:54 16 27 24.3
002EF58F 2019-04-19 22:46:39 16 27 24.3
002EF58F 2019-04-19 22:11:24 16 27 24.3
002EF58F 2019-04-19 21:36:09 16 27 24.3
002EF58F 2019-04-19 21:00:54 16 27 24.3
002EF58F 2019-04-19 20:25:39 16.1 27 24.3
002EF58F 2019-04-19 19:50:24 16 27 24.3
002EF58F 2019-04-19 19:15:10 16 27 24.1
002EF58F 2019-04-19 18:39:56 16 27 24.1
002EF58F 2019-04-19 18:04:42 16 27 24.2
002EF58F 2019-04-19 17:29:27 15.9 27 24
002EF58F 2019-04-19 16:54:12 15.9 27 23.9
002EF58F 2019-04-19 16:18:54 15.8 27 23.9
002EF58F 2019-04-19 15:43:38 15.8 27 23.9
002EF58F 2019-04-19 15:08:22 15.8 26 24.1
002EF58F 2019-04-19 14:33:08 15.8 26 24.1
002EF58F 2019-04-19 13:57:52 15.8 26 24.1
002EF58F 2019-04-19 13:22:37 15.8 26 24.1
002EF58F 2019-04-19 12:47:22 15.8 26 24
002EF58F 2019-04-19 12:12:06 15.8 26 23.9
002EF58F 2019-04-19 11:36:51 15.8 26 23.9
002EF58F 2019-04-19 11:01:35 15.8 26 23.9
002EF58F 2019-04-19 10:26:21 15.8 26 23.8
002EF58F 2019-04-19 09:51:06 15.8 26 23.9
002EF58F 2019-04-19 09:15:50 15.8 26 23.8
002EF58F 2019-04-19 08:40:32 15.8 26 23.6
002EF58F 2019-04-19 08:05:17 15.9 26 23.5
002EF58F 2019-04-19 07:30:00 15.9 26 23.3
002EF58F 2019-04-19 06:54:43 16 26 23.2
002EF58F 2019-04-19 06:19:27 16 26 23.3
002EF58F 2019-04-19 05:44:10 16 26 23.3
002EF58F 2019-04-19 05:08:54 16 26 23.5
002EF58F 2019-04-19 04:33:37 16 26 23.7
002EF58F 2019-04-19 03:58:21 16.1 26 23.6
002EF58F 2019-04-19 03:23:04 16.1 26 23.4
002EF58F 2019-04-19 02:47:46 16.3 26 23.5
002EF58F 2019-04-19 02:12:30 16.3 26 23.3
002EF58F 2019-04-19 01:37:14 16.3 26 23.6
002EF58F 2019-04-19 01:01:56 16.4 26 23.9
002EF58F 2019-04-19 00:26:38 16.4 26 24.1
002EF58F 2019-04-18 23:51:21 16.5 26 23.9
002EF58F 2019-04-18 23:16:04 16.5 26 24
002EF58F 2019-04-18 22:40:47 16.5 26 23.9
002EF58F 2019-04-18 22:05:29 16.5 26 23.8
002EF58F 2019-04-18 21:30:13 16.5 26 23.9
002EF58F 2019-04-18 20:54:57 16.5 25 23.9
002EF58F 2019-04-18 20:19:41 16.5 25 23.9
002EF58F 2019-04-18 19:44:24 16.5 25 23.8
002EF58F 2019-04-18 19:09:09 16.4 25 23.7
002EF58F 2019-04-18 18:33:53 16.3 25 23.8
002EF58F 2019-04-18 17:58:36 16.3 25 23.9
002EF58F 2019-04-18 17:23:20 16.3 25 23.9
002EF58F 2019-04-18 16:48:06 16.3 25 24
002EF58F 2019-04-18 16:12:47 16.3 25 24.2
002EF58F 2019-04-18 15:37:31 16.1 25 24
002EF58F 2019-04-18 15:02:14 16.1 25 23.9
002EF58F 2019-04-18 14:26:58 16.1 25 23.7
002EF58F 2019-04-18 13:51:42 16.1 25 23.5
002EF58F 2019-04-18 13:16:25 16 25 23.4
002EF58F 2019-04-18 12:41:08 16.1 25 23.5
002EF58F 2019-04-18 12:05:51 16.2 25 23.4
002EF58F 2019-04-18 11:30:35 16.1 25 23.5
002EF58F 2019-04-18 10:55:20 16.1 25 23.1
002EF58F 2019-04-18 10:20:04 16.2 25 22.6
002EF58F 2019-04-18 09:44:49 16.2 24 22.1
002EF58F 2019-04-18 09:09:34 16.3 24 22.1
002EF58F 2019-04-18 08:34:19 16.3 24 21.8
002EF58F 2019-04-18 07:59:03 16.3 24 21.8
002EF58F 2019-04-18 07:23:48 16.3 24 21.7
002EF58F 2019-04-18 06:48:33 16.3 24 21.7
002EF58F 2019-04-18 06:13:18 16.3 24 21.9
002EF58F 2019-04-18 05:38:02 16.3 24 22.2
002EF58F 2019-04-18 05:02:47 16.3 24 22.5
002EF58F 2019-04-18 04:27:32 16.3 24 22.4
002EF58F 2019-04-18 03:52:18 16.3 24 22.3
002EF58F 2019-04-18 03:17:03 16.5 24 22.3
002EF58F 2019-04-18 02:41:48 16.5 24 22.3
002EF58F 2019-04-18 02:06:32 16.5 24 22.4
002EF58F 2019-04-18 01:31:17 16.5 24 22.4
002EF58F 2019-04-18 00:56:02 16.7 24 22.2
002EF58F 2019-04-18 00:20:48 16.7 24 22.4
002EF58F 2019-04-17 23:45:32 16.7 24 22.3
002EF58F 2019-04-17 23:10:17 16.7 24 22.3
002EF58F 2019-04-17 22:35:01 16.7 24 22.2
002EF58F 2019-04-17 21:59:46 16.7 24 22.1
002EF58F 2019-04-17 21:24:30 16.7 23 22.2
002EF58F 2019-04-17 20:49:14 16.7 23 22
002EF58F 2019-04-17 20:13:58 16.7 23 22
002EF58F 2019-04-17 19:38:41 16.7 23 22
002EF58F 2019-04-17 19:03:25 16.7 23 22
002EF58F 2019-04-17 18:28:10 16.7 23 22
002EF58F 2019-04-17 17:52:54 16.7 23 22
002EF58F 2019-04-17 17:17:38 16.7 23 22
002EF58F 2019-04-17 16:42:22 16.7 23 22.1
002EF58F 2019-04-17 16:07:07 16.8 23 22
002EF58F 2019-04-17 15:31:51 16.9 23 21.7
002EF58F 2019-04-17 14:56:37 16.9 23 21.3
002EF58F 2019-04-17 14:21:20 16.9 23 20.8
002EF58F 2019-04-17 13:10:49 17 23 20.7
002EF58F 2019-04-17 12:35:33 16.9 23 20.7
002EF58F 2019-04-17 12:00:18 17.1 23 20.4
002EF58F 2019-04-17 11:25:02 17.1 22 20.2
002EF58F 2019-04-17 10:49:47 17.2 22 19.8
002EF58F 2019-04-17 10:14:33 17.3 22 19.5
002EF58F 2019-04-17 09:39:18 17.3 22 19.4
002EF58F 2019-04-17 09:04:04 17.5 22 18.8
002EF58F 2019-04-17 08:28:50 17.6 22 18.8
002EF58F 2019-04-17 07:53:35 17.8 22 19
002EF58F 2019-04-17 07:18:20 17.8 22 19.4
002EF58F 2019-04-17 06:43:04 17.8 22 19.5
002EF58F 2019-04-17 06:07:49 18 22 19.4
002EF58F 2019-04-17 05:32:34 18 22 19.3
002EF58F 2019-04-17 04:57:20 18 22 19
002EF58F 2019-04-17 04:22:06 18.1 22 18.9
002EF58F 2019-04-17 03:46:50 18.2 22 18.6
002EF58F 2019-04-17 03:11:36 18.2 22 18.2
002EF58F 2019-04-17 02:36:21 18.2 22 18.1
002EF58F 2019-04-17 02:01:07 18.3 22 17.8
002EF58F 2019-04-17 01:25:54 18.4 22 17.2
002EF58F 2019-04-17 00:50:40 18.5 22 16.9
002EF58F 2019-04-17 00:15:25 18.6 21 16.7
002EF58F 2019-04-16 23:40:08 18.8 21 16
002EF58F 2019-04-16 23:04:53 18.8 21 15.8
002EF58F 2019-04-16 22:29:39 19 21 15.7
002EF58F 2019-04-16 21:54:24 19.1 21 15.7
002EF58F 2019-04-16 21:19:09 19.2 21 15.6
002EF58F 2019-04-16 20:43:54 19.4 21 15.2
002EF58F 2019-04-16 20:08:39 19.5 21 15
002EF58F 2019-04-16 19:33:24 19.5 21 14.9
002EF58F 2019-04-16 18:58:08 19.7 21 14.9
002EF58F 2019-04-16 18:22:55 19.9 21 14.8
002EF58F 2019-04-16 17:47:40 20.1 21 14.6
002EF58F 2019-04-16 16:01:58 20.5 21 13.9
002EF58F 2019-04-16 15:26:44 20.7 21 11.9
002EF58F 2019-04-16 14:51:30 20.7 22 10.8
002EF58F 2019-04-16 14:16:15 20.8 22 9.1
002EF58F 2019-04-16 12:30:30 20.7 22 9.5
002EF58F 2019-04-16 11:20:02 20.7 22 9.5
002EF58F 2019-04-16 10:44:47 20.7 21 11.3
002EF58F 2019-04-16 09:34:15 20.7 21 11.9
002EF58F 2019-04-16 08:59:05 20.7 21 13.6
002EF58F 2019-04-16 08:23:47 20.7 21 15.3
002EF58F 2019-04-16 05:27:33 20.7 21 17.8
002EF58F 2019-04-16 04:52:19 20.7 21 18.4
002EF58F 2019-04-16 04:17:04 20.7 21 19.3
002EF58F 2019-04-16 03:41:50 20.7 21 20
002EF58F 2019-04-16 03:06:37 20.7 21 21
002EF58F 2019-04-16 01:56:04 20.7 20 22.2
002EF58F 2019-04-16 01:20:50 20.9 20 22.4
002EF58F 2019-04-16 00:45:35 20.9 20 22.7
002EF58F 2019-04-15 22:59:56 21 20 23.3
002EF58F 2019-04-15 22:24:37 21 20 23.7
002EF58F 2019-04-15 21:49:22 21 20 24.1
002EF58F 2019-04-15 21:14:09 21 20 24.5
002EF58F 2019-04-15 20:38:55 21 20 24.7
002EF58F 2019-04-15 20:03:38 21.1 19 25
002EF58F 2019-04-15 19:28:28 21.2 19 25.2
002EF58F 2019-04-15 18:17:55 21.3 19 25.3
002EF58F 2019-04-15 17:42:42 21.4 19 25.5
002EF58F 2019-04-15 17:07:27 21.4 19 25.7
002EF58F 2019-04-15 16:32:10 21.6 19 25.9
002EF58F 2019-04-15 14:11:09 22 18 26.4
002EF58F 2019-04-15 13:35:53 22 18 26.5
002EF58F 2019-04-15 12:25:23 22.2 17 26.6
002EF58F 2019-04-15 11:50:05 22.3 17 26.7
002EF58F 2019-04-15 11:14:50 22.2 16 26.7
002EF58F 2019-04-15 10:39:35 22.2 16 26.8
002EF58F 2019-04-15 10:04:21 22.2 16 26.8
002EF58F 2019-04-15 09:29:06 22 17 26.9
002EF58F 2019-04-15 08:53:51 22 16 26.8
002EF58F 2019-04-15 08:18:36 21.8 16 26.8
002EF58F 2019-04-15 07:43:20 21.8 16 26.6
002EF58F 2019-04-15 07:08:05 21.8 17 26.4
002EF58F 2019-04-15 06:32:50 21.8 17 26.4
002EF58F 2019-04-15 05:57:35 21.7 17 26.4
002EF58F 2019-04-15 05:22:20 21.6 17 26.2
002EF58F 2019-04-15 04:47:05 21.6 17 26.1
002EF58F 2019-04-15 04:11:49 21.7 17 25.9
002EF58F 2019-04-15 03:36:34 21.7 17 25.9
002EF58F 2019-04-15 03:01:18 21.6 17 26
002EF58F 2019-04-15 02:26:03 21.7 17 25.8
002EF58F 2019-04-15 01:50:47 21.6 17 26.2
002EF58F 2019-04-15 01:15:32 21.7 17 26.4
002EF58F 2019-04-15 00:40:16 21.7 17 26.4
002EF58F 2019-04-15 00:05:01 21.7 17 26.4
002EF58F 2019-04-14 23:29:45 21.7 17 26.3
002EF58F 2019-04-14 22:54:29 21.8 17 26
002EF58F 2019-04-14 22:19:13 21.8 17 26
002EF58F 2019-04-14 21:43:58 21.8 18 25.9
002EF58F 2019-04-14 21:08:43 21.8 18 26.2
002EF58F 2019-04-14 20:33:27 21.9 18 26.3
002EF58F 2019-04-14 19:58:11 21.9 18 26.2
002EF58F 2019-04-14 19:22:56 21.8 18 26.2
002EF58F 2019-04-14 18:47:41 21.8 18 26.2
002EF58F 2019-04-14 18:12:26 21.8 18 26.2
002EF58F 2019-04-14 17:37:12 21.8 18 26.2
002EF58F 2019-04-14 17:01:59 21.8 17 26.2
002EF58F 2019-04-14 16:26:45 21.8 18 26.5
002EF58F 2019-04-14 15:51:30 21.8 18 26.5
002EF58F 2019-04-14 15:16:15 21.8 18 26.4
002EF58F 2019-04-14 14:41:00 21.8 18 26.5
002EF58F 2019-04-14 14:05:45 21.8 18 26.5
002EF58F 2019-04-14 13:30:31 21.8 18 26.5
002EF58F 2019-04-14 12:55:16 21.8 18 26.3
002EF58F 2019-04-14 12:20:00 21.8 18 26.2
002EF58F 2019-04-14 11:44:44 21.8 18 26.2
002EF58F 2019-04-14 11:09:29 21.8 18 26
002EF58F 2019-04-14 10:34:14 21.8 18 25.7
002EF58F 2019-04-14 09:58:57 21.8 18 25.7
002EF58F 2019-04-14 09:23:43 21.8 18 25.7
002EF58F 2019-04-14 08:48:28 21.8 18 25.7
002EF58F 2019-04-14 08:13:13 21.8 18 25.7
002EF58F 2019-04-14 07:37:57 21.8 17 26
002EF58F 2019-04-14 07:02:41 21.8 17 26.1
002EF58F 2019-04-14 06:27:26 21.8 17 25.8
002EF58F 2019-04-14 05:52:10 21.8 17 25.7
002EF58F 2019-04-14 05:16:54 21.8 17 25.4
002EF58F 2019-04-14 04:41:39 21.8 17 25.4
002EF58F 2019-04-14 04:06:23 21.8 17 25.5
002EF58F 2019-04-14 03:31:08 21.8 17 25.4
002EF58F 2019-04-14 02:55:53 21.8 17 25.4
002EF58F 2019-04-14 02:20:38 21.8 17 25.5
002EF58F 2019-04-14 01:45:23 21.8 18 25.1
002EF58F 2019-04-14 01:10:08 21.8 17 25.5
002EF58F 2019-04-14 00:34:54 21.8 17 25.5
002EF58F 2019-04-13 23:59:39 21.9 17 25.5
002EF58F 2019-04-13 23:24:23 21.9 17 25.5
002EF58F 2019-04-13 22:49:07 22 17 25.5
002EF58F 2019-04-13 22:13:52 22 17 25.5
002EF58F 2019-04-13 21:38:37 22 17 25.5
002EF58F 2019-04-13 21:03:22 22 17 25.5
002EF58F 2019-04-13 20:28:06 22 17 25.4
002EF58F 2019-04-13 19:52:50 22 17 25.4
002EF58F 2019-04-13 19:17:35 22 17 25.4
002EF58F 2019-04-13 18:42:19 22.1 17 25.3
002EF58F 2019-04-13 18:07:03 22.1 17 25.2
002EF58F 2019-04-13 17:31:46 22.2 17 25.1
002EF58F 2019-04-13 16:56:30 22.2 17 24.6
002EF58F 2019-04-13 16:21:12 22.2 17 24.5
002EF58F 2019-04-13 15:45:57 22.2 17 24.5
002EF58F 2019-04-13 15:10:40 22.2 17 24.5
002EF58F 2019-04-13 14:35:25 22.2 17 24.6
002EF58F 2019-04-13 14:00:10 22.2 17 24.5
002EF58F 2019-04-13 13:24:54 22.2 17 24.3
002EF58F 2019-04-13 12:49:38 22.2 17 24.3
002EF58F 2019-04-13 12:14:21 22.2 17 24.2
002EF58F 2019-04-13 11:39:04 22.2 17 24.2
002EF58F 2019-04-13 11:03:47 22.2 17 24.1
002EF58F 2019-04-13 10:28:32 22.2 17 23.5
002EF58F 2019-04-13 09:53:15 22.2 17 23.7
002EF58F 2019-04-13 09:17:59 22.2 17 23.7
002EF58F 2019-04-13 08:42:42 22.2 17 23.6
002EF58F 2019-04-13 08:07:24 22.2 17 23.6
002EF58F 2019-04-13 07:32:06 22.2 17 23.6
002EF58F 2019-04-13 06:56:48 22.2 17 23.8
002EF58F 2019-04-13 06:21:30 22.2 17 23.8
002EF58F 2019-04-13 05:46:13 22.2 17 24.3
002EF58F 2019-04-13 05:10:55 22.2 17 24.7
002EF58F 2019-04-13 04:35:37 22.2 17 25.1
002EF58F 2019-04-13 04:00:19 22.2 17 25.1
002EF58F 2019-04-13 03:25:02 22.3 17 25.2
002EF58F 2019-04-13 02:49:44 22.4 17 25.2
002EF58F 2019-04-13 02:14:27 22.4 17 25.3
002EF58F 2019-04-13 01:39:09 22.5 17 25.4
002EF58F 2019-04-13 01:03:52 22.5 17 25.5
002EF58F 2019-04-13 00:28:35 22.5 17 25.6
002EF58F 2019-04-12 23:53:17 22.5 18 25.7
002EF58F 2019-04-12 23:18:00 22.5 18 25.7
002EF58F 2019-04-12 22:42:41 22.6 18 25.8
002EF58F 2019-04-12 22:07:24 22.7 18 26
002EF58F 2019-04-12 21:32:05 22.7 18 26.1
002EF58F 2019-04-12 20:56:47 22.8 18 26.2
002EF58F 2019-04-12 20:21:28 22.8 18 26.3
002EF58F 2019-04-12 19:46:10 22.7 17 26.5
002EF58F 2019-04-12 19:10:52 22.9 17 26.6
002EF58F 2019-04-12 18:35:35 22.9 16 26.7
002EF58F 2019-04-12 18:00:16 23.1 17 27
002EF58F 2019-04-12 17:24:58 23.1 17 27.3
002EF58F 2019-04-12 16:49:39 23.1 17 27.6
002EF58F 2019-04-12 16:14:22 22.9 18 27.7
002EF58F 2019-04-12 15:39:03 22.9 18 28.3
002EF58F 2019-04-12 15:03:45 22.7 19 27.7
002EF58F 2019-04-12 14:28:27 22.5 20 26.6
002EF58F 2019-04-12 13:53:09 22 21 22.6
002EF58F 2019-04-12 13:17:51 21.2 23 22.1